Location: Alando
(42.3054°N, 9.2895°E)
Time: 03:20:28
(UTC+00:00)

Cosmos 962 Rocket - Pass Details

Date: 09 April 2020
Orbit: 950 x 1000 km, 82.9° (Epoch: 29 May)

Event Time Altitude Azimuth Distance (km) Brightness Sun altitude
Rises 19:20:33 0° 354° (N) 3,650 8.0 -15.2°
Reaches altitude 10° 19:23:05 10° 357° (N) 2,695 7.2 -15.6°
Maximum altitude 19:29:13 69° 81° (E) 1,018 4.4 -16.7°
Enters shadow 19:34:09 16° 162° (SSE) 2,249 6.0 -17.5°
